DeKalb, IL

12:17 AM CDT on September 20, 2017 (GMT -0500)
De Kalb Taylor Municipal

Weather History for KDKB - February, 2013

Change the Weather History Date:

Saturday, February 23, 2013

  Actual Average (KARR) Record (KARR)
Temperature  
Mean Temperature 22 °F -  
Max Temperature 25 °F 36 °F 61 °F (2000)
Min Temperature 19 °F 21 °F -8 °F (2015)
Degree Days  
Heating Degree Days 43    
Moisture  
Dew Point 17 °F    
Average Humidity 81    
Maximum Humidity 88    
Minimum Humidity 71    
Precipitation  
Precipitation 0.00 in - - ()
Sea Level Pressure  
Sea Level Pressure 29.91 in    
Wind  
Wind Speed 13 mph (WSW)    
Max Wind Speed 18 mph    
Max Gust Speed 24 mph    
Visibility 9 miles    
Events Snow    
Averages and records for this station are not official NWS values.
T = Trace of Precipitation, MM = Missing Value Source: NWS Daily Summary

Daily Weather History Graph

Daily Weather History Graph

Search for Another Location

Airport or City:

Trip Planner

Search our weather history database for the weather conditions in past years. The results will help you decide how hot, cold, wet, or windy it might be!

Date:

Astronomy

Feb. 23, 2013 Rise Set
Actual Time 6:38 AM CST 5:38 PM CST
Civil Twilight 6:10 AM CST 6:06 PM CST
Nautical Twilight 5:38 AM CST 6:38 PM CST
Astronomical Twilight 5:05 AM CST 7:11 PM CST
Moon 3:47 PM CST (2/23) 5:02 AM CST (2/23)
Length of Visible Light 11h 55m
Length of Day
10h 59m
Waxing Gibbous, 95% of the Moon is Illuminated
Feb 23
Waxing Gibbous
Feb 25
Full
Mar 4
Last Quarter
Mar 11
New
Mar 19
First Quarter

Hourly Weather History & Observations

Time (CST) Temp. Windchill Dew Point Humidity Pressure Visibility Wind Dir Wind Speed Gust Speed Precip Events Conditions
12:15 AM 24.8 °F 12.4 °F 21.7 °F 88% 29.89 in 7.0 mi WSW 15.0 mph - N/A   Overcast
12:35 AM 24.6 °F 13.2 °F 21.2 °F 87% 29.88 in 7.0 mi WSW 12.7 mph - N/A   Overcast
12:55 AM 24.4 °F 11.9 °F 21.0 °F 87% 29.89 in 7.0 mi WSW 15.0 mph - N/A   Overcast
1:15 AM 23.9 °F 10.3 °F 20.3 °F 86% 29.88 in 7.0 mi WSW 17.3 mph 24.2 mph N/A   Overcast
1:35 AM 23.5 °F 10.8 °F 20.1 °F 87% 29.88 in 7.0 mi WSW 15.0 mph 19.6 mph N/A   Overcast
1:55 AM 23.0 °F 8.7 °F 19.4 °F 86% 29.89 in 7.0 mi WSW 18.4 mph 24.2 mph N/A   Overcast
2:15 AM 22.6 °F 9.2 °F 19.2 °F 87% 29.88 in 7.0 mi WSW 16.1 mph 21.9 mph N/A   Overcast
2:35 AM 21.9 °F 7.3 °F 18.5 °F 87% 29.89 in 7.0 mi WSW 18.4 mph 21.9 mph N/A   Overcast
2:55 AM 21.2 °F 7.8 °F 17.6 °F 86% 29.89 in 7.0 mi WSW 15.0 mph - N/A   Mostly Cloudy
3:15 AM 21.7 °F 10.2 °F 18.1 °F 86% 29.89 in 7.0 mi WSW 11.5 mph - N/A   Overcast
3:35 AM 21.6 °F 9.3 °F 18.0 °F 86% 29.88 in 7.0 mi WSW 12.7 mph 18.4 mph N/A   Overcast
3:55 AM 21.2 °F 7.8 °F 17.8 °F 87% 29.88 in 7.0 mi WSW 15.0 mph - N/A   Overcast
4:15 AM 21.2 °F 7.8 °F 18.0 °F 87% 29.89 in 7.0 mi WSW 15.0 mph - N/A   Overcast
4:35 AM 21.2 °F 8.9 °F 18.0 °F 87% 29.89 in 7.0 mi WSW 12.7 mph - N/A   Overcast
4:55 AM 21.2 °F 10.1 °F 18.1 °F 88% 29.89 in 7.0 mi WSW 10.4 mph - N/A   Overcast
5:15 AM 21.4 °F 9.1 °F 18.0 °F 87% 29.90 in 7.0 mi WSW 12.7 mph 16.1 mph N/A   Overcast
5:35 AM 21.6 °F 9.9 °F 18.0 °F 86% 29.90 in 7.0 mi WSW 11.5 mph 16.1 mph N/A   Overcast
5:55 AM 21.9 °F 10.4 °F 18.1 °F 85% 29.91 in 7.0 mi WSW 11.5 mph 17.3 mph N/A   Overcast
6:15 AM 21.7 °F 9.6 °F 18.0 °F 85% 29.91 in 7.0 mi WSW 12.7 mph - N/A   Overcast
6:35 AM 21.6 °F 9.3 °F 18.0 °F 86% 29.91 in 7.0 mi WSW 12.7 mph 17.3 mph N/A Snow Light Snow
6:55 AM 21.2 °F 9.5 °F 17.6 °F 86% 29.92 in 7.0 mi WSW 11.5 mph - N/A Snow Light Snow
7:15 AM 21.2 °F 9.5 °F 17.6 °F 86% 29.91 in 7.0 mi WSW 11.5 mph - N/A   Overcast
7:35 AM 21.2 °F 8.9 °F 17.6 °F 86% 29.91 in 7.0 mi WSW 12.7 mph 16.1 mph N/A Snow Light Snow
7:55 AM 21.4 °F 10.4 °F 17.6 °F 85% 29.91 in 7.0 mi WSW 10.4 mph - N/A   Overcast
8:15 AM 21.6 °F 9.3 °F 17.1 °F 83% 29.91 in 10.0 mi WSW 12.7 mph - N/A   Overcast
8:35 AM 22.1 °F 8.9 °F 17.4 °F 82% 29.91 in 10.0 mi WSW 15.0 mph 20.7 mph N/A   Overcast
8:55 AM 21.9 °F 8.2 °F 17.4 °F 83% 29.92 in 10.0 mi WSW 16.1 mph - N/A   Mostly Cloudy
9:15 AM 22.1 °F 8.9 °F 16.7 °F 80% 29.92 in 10.0 mi WSW 15.0 mph - N/A   Mostly Cloudy
9:35 AM 22.6 °F 9.2 °F 16.5 °F 77% 29.92 in 10.0 mi West 16.1 mph 21.9 mph N/A   Mostly Cloudy
9:55 AM 23.0 °F 8.7 °F 16.0 °F 74% 29.92 in 10.0 mi West 18.4 mph 21.9 mph N/A   Mostly Cloudy
10:15 AM 22.1 °F 8.5 °F 14.5 °F 73% 29.92 in 10.0 mi West 16.1 mph 23.0 mph N/A   Scattered Clouds
10:35 AM 23.4 °F 9.6 °F 15.3 °F 71% 29.93 in 10.0 mi WSW 17.3 mph 24.2 mph N/A   Scattered Clouds
10:55 AM 23.2 °F 10.3 °F 15.6 °F 73% 29.93 in 10.0 mi WSW 15.0 mph 21.9 mph N/A   Scattered Clouds
11:15 AM 23.9 °F 11.2 °F 16.7 °F 74% 29.93 in 10.0 mi West 15.0 mph - N/A   Mostly Cloudy
11:35 AM 24.1 °F 12.5 °F 17.6 °F 76% 29.93 in 5.0 mi West 12.7 mph 18.4 mph N/A   Haze
11:55 AM 23.9 °F 11.7 °F 18.9 °F 81% 29.92 in 2.0 mi WSW 13.8 mph - N/A Snow Light Snow
12:15 PM 24.1 °F 13.1 °F 18.3 °F 79% 29.91 in 4.0 mi WSW 11.5 mph - N/A Snow Light Snow
12:35 PM 24.3 °F 11.7 °F 18.1 °F 77% 29.90 in 3.0 mi West 15.0 mph - N/A Snow Light Snow
12:55 PM 23.7 °F 11.0 °F 19.0 °F 82% 29.89 in 4.0 mi West 15.0 mph 18.4 mph N/A   Overcast
1:15 PM 23.5 °F 9.9 °F 16.7 °F 75% 29.90 in 10.0 mi West 17.3 mph 20.7 mph N/A   Overcast
1:35 PM 24.1 °F 11.5 °F 16.5 °F 73% 29.90 in 10.0 mi West 15.0 mph - N/A   Mostly Cloudy
1:55 PM 25.2 °F 14.4 °F 17.2 °F 72% 29.90 in 10.0 mi WSW 11.5 mph - N/A   Mostly Cloudy
2:15 PM 24.8 °F 12.4 °F 18.0 °F 75% 29.90 in 10.0 mi WSW 15.0 mph 20.7 mph N/A   Mostly Cloudy
2:35 PM 24.8 °F 12.9 °F 18.3 °F 76% 29.90 in 10.0 mi West 13.8 mph 17.3 mph N/A   Mostly Cloudy
2:55 PM 24.6 °F 13.2 °F 18.3 °F 77% 29.90 in 10.0 mi WSW 12.7 mph - N/A   Overcast
3:15 PM 24.8 °F 12.4 °F 18.3 °F 76% 29.90 in 10.0 mi SW 15.0 mph - N/A   Overcast
3:35 PM 25.5 °F 13.8 °F 18.0 °F 73% 29.90 in 10.0 mi WSW 13.8 mph 18.4 mph N/A   Overcast
3:55 PM 24.8 °F 14.0 °F 18.3 °F 76% 29.90 in 10.0 mi SW 11.5 mph - N/A   Overcast
4:15 PM 24.6 °F 14.4 °F 18.5 °F 78% 29.90 in 10.0 mi WSW 10.4 mph - N/A   Overcast
4:35 PM 24.3 °F 13.9 °F 18.5 °F 79% 29.90 in 10.0 mi WSW 10.4 mph - N/A   Mostly Cloudy
4:55 PM 23.9 °F 12.9 °F 18.1 °F 79% 29.90 in 10.0 mi SW 11.5 mph - N/A   Overcast
5:15 PM 23.9 °F 13.5 °F 18.1 °F 79% 29.91 in 10.0 mi SW 10.4 mph - N/A   Overcast
5:35 PM 23.9 °F 12.9 °F 18.1 °F 79% 29.92 in 10.0 mi WSW 11.5 mph - N/A   Overcast
5:55 PM 23.9 °F 13.5 °F 18.1 °F 79% 29.93 in 10.0 mi WSW 10.4 mph - N/A   Overcast
6:15 PM 23.5 °F 14.5 °F 17.6 °F 78% 29.93 in 10.0 mi WSW 8.1 mph - N/A   Mostly Cloudy
6:35 PM 22.8 °F 13.6 °F 17.1 °F 79% 29.94 in 10.0 mi WSW 8.1 mph - N/A   Scattered Clouds
6:55 PM 22.3 °F 13.9 °F 16.7 °F 79% 29.94 in 10.0 mi SW 6.9 mph - N/A   Clear
7:15 PM 21.6 °F 12.1 °F 16.2 °F 80% 29.94 in 10.0 mi SW 8.1 mph - N/A   Clear
7:35 PM 21.2 °F 11.7 °F 16.0 °F 80% 29.94 in 10.0 mi SW 8.1 mph - N/A   Clear
7:55 PM 21.0 °F 11.4 °F 16.0 °F 81% 29.94 in 10.0 mi WSW 8.1 mph - N/A   Clear
8:15 PM 20.3 °F 12.5 °F 15.6 °F 82% 29.94 in 10.0 mi WSW 5.8 mph - N/A   Clear
8:35 PM 20.1 °F 10.3 °F 15.6 °F 83% 29.94 in 10.0 mi West 8.1 mph - N/A   Clear
8:55 PM 19.9 °F 11.1 °F 15.3 °F 82% 29.94 in 10.0 mi West 6.9 mph - N/A   Clear
9:15 PM 19.6 °F 11.7 °F 14.9 °F 82% 29.95 in 10.0 mi WSW 5.8 mph - N/A   Clear
9:35 PM 19.4 °F 10.4 °F 14.9 °F 83% 29.95 in 10.0 mi West 6.9 mph - N/A   Clear
9:55 PM 19.4 °F 9.5 °F 15.8 °F 86% 29.95 in 10.0 mi WSW 8.1 mph - N/A   Clear
10:15 PM 19.8 °F 9.9 °F 15.3 °F 83% 29.94 in 10.0 mi WSW 8.1 mph - N/A   Scattered Clouds
10:35 PM 20.3 °F 10.6 °F 15.8 °F 83% 29.94 in 10.0 mi WSW 8.1 mph - N/A   Overcast
10:55 PM 21.0 °F 11.4 °F 16.3 °F 82% 29.94 in 10.0 mi WSW 8.1 mph - N/A   Overcast
11:15 PM 20.7 °F 10.2 °F 16.0 °F 82% 29.94 in 10.0 mi WSW 9.2 mph - N/A   Overcast
11:35 PM 19.8 °F 9.9 °F 15.1 °F 82% 29.95 in 10.0 mi West 8.1 mph - N/A   Scattered Clouds
11:55 PM 19.2 °F 7.7 °F 14.9 °F 83% 29.95 in 10.0 mi WSW 10.4 mph - N/A   Clear